TimeCDT,TemperatureF,Dew PointF,Humidity,Sea Level PressureIn,VisibilityMPH,Wind Direction,Wind SpeedMPH,Gust SpeedMPH,PrecipitationIn,Events,Conditions,WindDirDegrees,DateUTC
12:15 AM,70.5,62.6,76,29.96,10.0,NNW,5.8,-,N/A,,Clear,340,2013-09-03 05:15:00
12:35 AM,69.3,62.6,79,29.96,10.0,NNW,5.8,-,N/A,,Clear,340,2013-09-03 05:35:00
12:38 AM,69.8,62.6,78,29.96,10.0,NNW,4.6,-,N/A,,Clear,340,2013-09-03 05:38:00
12:55 AM,68.2,62.6,82,29.96,10.0,NNW,4.6,-,N/A,,Clear,340,2013-09-03 05:55:00
12:59 AM,68.0,62.6,83,29.97,10.0,North,4.6,-,N/A,,Clear,350,2013-09-03 05:59:00
1:15 AM,67.5,62.2,83,29.97,10.0,North,3.5,-,N/A,,Clear,350,2013-09-03 06:15:00
1:19 AM,68.0,62.6,83,29.97,10.0,North,4.6,-,N/A,,Clear,350,2013-09-03 06:19:00
1:35 AM,67.3,62.2,84,29.97,10.0,Calm,Calm,-,N/A,,Clear,0,2013-09-03 06:35:00
1:39 AM,66.2,62.6,88,29.97,10.0,Calm,Calm,-,N/A,,Clear,0,2013-09-03 06:39:00
1:55 AM,65.3,61.7,88,29.98,10.0,Calm,Calm,-,N/A,,Clear,0,2013-09-03 06:55:00
1:59 AM,64.4,60.8,88,29.98,10.0,Calm,Calm,-,N/A,,Clear,0,2013-09-03 06:59:00
2:15 AM,64.4,61.5,90,29.98,10.0,Calm,Calm,-,N/A,,Scattered Clouds,0,2013-09-03 07:15:00
2:19 AM,64.4,60.8,88,29.98,10.0,Calm,Calm,-,N/A,,Scattered Clouds,0,2013-09-03 07:19:00
2:35 AM,64.4,61.3,90,29.98,10.0,Calm,Calm,-,N/A,,Scattered Clouds,0,2013-09-03 07:35:00
2:39 AM,64.4,60.8,88,29.98,10.0,Calm,Calm,-,N/A,,Scattered Clouds,0,2013-09-03 07:39:00
2:55 AM,64.0,61.0,90,29.98,10.0,Calm,Calm,-,N/A,,Clear,0,2013-09-03 07:55:00
2:59 AM,64.4,60.8,88,29.98,10.0,Calm,Calm,-,N/A,,Clear,0,2013-09-03 07:59:00
3:15 AM,63.9,60.8,90,29.99,10.0,Calm,Calm,-,N/A,,Clear,0,2013-09-03 08:15:00
3:19 AM,64.4,60.8,88,29.99,10.0,Calm,Calm,-,N/A,,Clear,0,2013-09-03 08:19:00
3:35 AM,63.5,60.4,90,29.99,10.0,Calm,Calm,-,N/A,,Scattered Clouds,0,2013-09-03 08:35:00
3:39 AM,62.6,60.8,94,29.99,10.0,Calm,Calm,-,N/A,,Scattered Clouds,0,2013-09-03 08:39:00
3:55 AM,62.8,60.1,91,29.99,10.0,Calm,Calm,-,N/A,,Scattered Clouds,0,2013-09-03 08:55:00
3:59 AM,62.6,59.0,88,29.99,10.0,Calm,Calm,-,N/A,,Clear,0,2013-09-03 08:59:00
4:15 AM,62.4,59.9,91,30.00,10.0,Calm,Calm,-,N/A,,Scattered Clouds,0,2013-09-03 09:15:00
4:19 AM,62.6,59.0,88,30.00,10.0,Calm,Calm,-,N/A,,Scattered Clouds,0,2013-09-03 09:19:00
4:35 AM,62.4,60.1,92,30.00,10.0,Calm,Calm,-,N/A,,Scattered Clouds,0,2013-09-03 09:35:00
4:39 AM,62.6,60.8,94,30.00,10.0,Calm,Calm,-,N/A,,Scattered Clouds,0,2013-09-03 09:39:00
4:55 AM,62.1,59.2,90,30.00,10.0,Calm,Calm,-,N/A,,Clear,0,2013-09-03 09:55:00
4:58 AM,60.8,59.0,94,30.00,10.0,Calm,Calm,-,N/A,,Clear,0,2013-09-03 09:58:00
5:15 AM,61.3,59.2,93,30.01,10.0,Calm,Calm,-,N/A,,Clear,0,2013-09-03 10:15:00
5:18 AM,62.6,59.0,88,30.01,10.0,Calm,Calm,-,N/A,,Clear,0,2013-09-03 10:18:00
5:35 AM,61.0,58.6,92,30.01,10.0,Calm,Calm,-,N/A,,Clear,0,2013-09-03 10:35:00
5:39 AM,60.8,59.0,94,30.01,10.0,Calm,Calm,-,N/A,,Clear,0,2013-09-03 10:39:00
5:55 AM,61.0,59.0,93,30.02,10.0,Calm,Calm,-,N/A,,Clear,0,2013-09-03 10:55:00
5:59 AM,60.8,59.0,94,30.02,10.0,Calm,Calm,-,N/A,,Clear,0,2013-09-03 10:59:00
6:15 AM,60.8,58.5,92,30.02,10.0,Calm,Calm,-,N/A,,Clear,0,2013-09-03 11:15:00
6:35 AM,61.7,59.7,93,30.03,5.0,Calm,Calm,-,N/A,,Clear,0,2013-09-03 11:35:00
6:55 AM,62.4,60.3,93,30.04,5.0,Calm,Calm,-,N/A,,Clear,0,2013-09-03 11:55:00
7:15 AM,63.7,61.7,93,30.04,5.0,Calm,Calm,-,N/A,,Clear,0,2013-09-03 12:15:00
7:35 AM,65.3,62.8,92,30.05,7.0,Calm,Calm,-,N/A,,Clear,0,2013-09-03 12:35:00
7:55 AM,66.4,63.1,89,30.05,10.0,NE,3.5,-,N/A,,Clear,40,2013-09-03 12:55:00
8:15 AM,67.8,63.5,86,30.05,10.0,Calm,Calm,-,N/A,,Clear,0,2013-09-03 13:15:00
8:35 AM,69.3,63.3,81,30.06,10.0,ENE,4.6,-,N/A,,Clear,70,2013-09-03 13:35:00
8:55 AM,70.5,62.6,76,30.07,10.0,ENE,6.9,-,N/A,,Clear,70,2013-09-03 13:55:00
9:15 AM,71.8,62.6,73,30.07,10.0,NE,5.8,-,N/A,,Clear,40,2013-09-03 14:15:00
9:35 AM,72.9,63.0,71,30.07,10.0,ENE,4.6,-,N/A,,Clear,60,2013-09-03 14:35:00
9:55 AM,73.9,62.6,68,30.08,10.0,ENE,5.8,-,N/A,,Clear,70,2013-09-03 14:55:00
10:15 AM,74.1,62.6,67,30.08,10.0,ENE,4.6,-,N/A,,Clear,70,2013-09-03 15:15:00
10:35 AM,75.2,62.2,64,30.08,10.0,NE,6.9,-,N/A,,Clear,40,2013-09-03 15:35:00
10:55 AM,77.0,62.4,61,30.08,10.0,ENE,5.8,-,N/A,,Clear,60,2013-09-03 15:55:00
11:15 AM,77.7,62.1,58,30.08,10.0,ENE,4.6,-,N/A,,Clear,60,2013-09-03 16:15:00
11:35 AM,78.1,62.6,59,30.07,10.0,Calm,Calm,-,N/A,,Clear,0,2013-09-03 16:35:00
11:55 AM,77.9,62.8,60,30.07,10.0,NNW,4.6,-,N/A,,Scattered Clouds,340,2013-09-03 16:55:00
12:15 PM,77.9,61.9,58,30.07,10.0,North,3.5,-,N/A,,Scattered Clouds,10,2013-09-03 17:15:00
12:35 PM,79.2,62.1,56,30.07,10.0,North,6.9,-,N/A,,Mostly Cloudy,360,2013-09-03 17:35:00
12:55 PM,80.2,59.7,49,30.06,10.0,Calm,Calm,-,N/A,,Scattered Clouds,0,2013-09-03 17:55:00
1:15 PM,79.9,61.2,53,30.06,10.0,NW,5.8,-,N/A,,Scattered Clouds,320,2013-09-03 18:15:00
1:35 PM,81.9,61.5,50,30.05,10.0,NW,8.1,-,N/A,,Scattered Clouds,320,2013-09-03 18:35:00
1:55 PM,81.5,60.1,48,30.06,10.0,Calm,Calm,-,N/A,,Scattered Clouds,0,2013-09-03 18:55:00
2:15 PM,80.2,61.5,53,30.05,10.0,North,5.8,-,N/A,,Scattered Clouds,360,2013-09-03 19:15:00
2:35 PM,80.1,59.4,49,30.05,10.0,WNW,6.9,-,N/A,,Scattered Clouds,300,2013-09-03 19:35:00
2:55 PM,81.7,59.0,46,30.04,10.0,WNW,5.8,-,N/A,,Scattered Clouds,290,2013-09-03 19:55:00
3:15 PM,82.4,59.7,46,30.04,10.0,North,4.6,-,N/A,,Clear,360,2013-09-03 20:15:00
3:35 PM,82.4,59.7,46,30.03,10.0,NNW,5.8,-,N/A,,Clear,340,2013-09-03 20:35:00
3:55 PM,82.4,58.6,44,30.03,10.0,NNW,4.6,-,N/A,,Clear,330,2013-09-03 20:55:00
4:15 PM,82.8,59.5,45,30.03,10.0,NNE,6.9,-,N/A,,Clear,20,2013-09-03 21:15:00
4:35 PM,82.2,59.2,45,30.03,10.0,Calm,Calm,-,N/A,,Clear,0,2013-09-03 21:35:00
4:55 PM,81.9,58.6,45,30.03,10.0,NNW,4.6,-,N/A,,Clear,340,2013-09-03 21:55:00
5:15 PM,82.0,58.1,44,30.03,10.0,North,5.8,-,N/A,,Clear,10,2013-09-03 22:15:00
5:35 PM,81.5,57.9,44,30.02,10.0,NNE,3.5,-,N/A,,Clear,20,2013-09-03 22:35:00
5:55 PM,79.3,57.6,47,30.03,10.0,North,4.6,-,N/A,,Clear,350,2013-09-03 22:55:00
6:15 PM,79.5,59.0,49,30.02,10.0,Calm,Calm,-,N/A,,Clear,0,2013-09-03 23:15:00
6:35 PM,79.7,58.6,48,30.03,10.0,North,3.5,-,N/A,,Clear,360,2013-09-03 23:35:00
6:55 PM,78.1,60.1,54,30.03,10.0,Calm,Calm,-,N/A,,Clear,0,2013-09-03 23:55:00
7:15 PM,76.5,61.2,59,30.02,10.0,Calm,Calm,-,N/A,,Clear,0,2013-09-04 00:15:00
7:35 PM,72.1,62.6,72,30.03,10.0,Calm,Calm,-,N/A,,Clear,0,2013-09-04 00:35:00
7:55 PM,68.9,63.5,83,30.04,10.0,Calm,Calm,-,N/A,,Clear,0,2013-09-04 00:55:00
8:15 PM,67.6,62.4,83,30.03,10.0,Calm,Calm,-,N/A,,Clear,0,2013-09-04 01:15:00
8:35 PM,66.6,62.6,87,30.04,10.0,Calm,Calm,-,N/A,,Clear,0,2013-09-04 01:35:00
8:55 PM,65.3,61.7,88,30.05,10.0,Calm,Calm,-,N/A,,Clear,0,2013-09-04 01:55:00
9:15 PM,65.3,61.7,88,30.05,10.0,Calm,Calm,-,N/A,,Clear,0,2013-09-04 02:15:00
9:35 PM,64.4,61.2,89,30.05,10.0,Calm,Calm,-,N/A,,Clear,0,2013-09-04 02:35:00
9:55 PM,63.1,60.6,91,30.06,10.0,Calm,Calm,-,N/A,,Clear,0,2013-09-04 02:55:00
10:15 PM,62.2,59.9,92,30.07,10.0,Calm,Calm,-,N/A,,Clear,0,2013-09-04 03:15:00
10:35 PM,62.2,59.4,90,30.08,10.0,Calm,Calm,-,N/A,,Clear,0,2013-09-04 03:35:00
10:55 PM,61.2,58.6,91,30.08,7.0,Calm,Calm,-,N/A,,Unknown,0,2013-09-04 03:55:00
11:15 PM,61.3,58.8,91,30.08,10.0,Calm,Calm,-,N/A,,Unknown,0,2013-09-04 04:15:00
11:35 PM,60.4,57.7,91,30.08,10.0,ESE,3.5,-,N/A,,Clear,110,2013-09-04 04:35:00
11:55 PM,63.3,59.9,89,30.09,10.0,Calm,Calm,-,N/A,,Clear,0,2013-09-04 04:55:00